Location: STAR School
(35.3054°N, 111.2976°W)
Time: 03:47:46
(UTC-07:00)

Vanguard 1 Rocket - Visible Passes

Search period start: 20 May 2019 00:00
Search period end: 30 May 2019 00:00
Orbit: 652 x 4224 km, 34.3° (Epoch: 18 May)

Date Brightness Start Highest point End Pass type
(mag) Time Alt. Az. Time Alt. Az. Time Alt. Az.
20 May 7.7 02:28:15 55° SSE 02:28:27 55° SSE 02:37:24 10° E visible
20 May 8.7 04:46:54 10° W 04:54:20 85° S 05:09:32 10° E visible
21 May 9.2 01:20:55 21° ESE 01:20:55 21° ESE 01:23:51 10° E visible
21 May 8.1 03:38:11 23° WSW 03:42:34 82° S 03:54:22 10° E visible
22 May 7.4 02:30:51 64° S 02:31:19 66° SSE 02:40:10 10° E visible
23 May 9.0 01:23:32 25° E 01:23:32 25° E 01:26:53 10° E visible
23 May 8.0 03:40:48 19° W 03:45:33 84° S 03:57:04 10° E visible
24 May 7.3 02:33:29 65° SW 02:34:16 75° SSE 02:42:58 10° E visible
25 May 8.7 01:26:11 28° E 01:26:11 28° E 01:29:49 10° E visible
25 May 8.0 03:43:28 15° W 03:48:33 84° S 03:59:45 10° E visible
26 May 7.3 02:36:10 60° WSW 02:37:17 81° S 02:45:46 10° E visible
27 May 8.5 01:28:54 32° E 01:28:54 32° E 01:32:44 10° E visible
27 May 7.9 03:46:11 13° W 03:51:34 79° S 04:02:26 10° ESE visible
28 May 7.3 02:38:57 54° W 02:40:19 83° S 02:48:35 10° E visible
29 May 8.3 01:31:44 34° E 01:31:44 34° E 01:35:38 10° E visible
29 May 7.9 03:49:01 11° W 03:54:34 72° S 04:05:02 10° ESE visible
